Location: La Silve
(44.2414°N, 5.8889°E)
Time: 18:36:37
(UTC+00:00)

SL-16 R/B - Visible Passes

Search period start: 16 April 2021 00:00
Search period end: 26 April 2021 00:00
Orbit: 840 x 850 km, 71.0° (Epoch: 15 April)

Date Brightness Start Highest point End Pass type
(mag) Time Alt. Az. Time Alt. Az. Time Alt. Az.
16 Apr 3.2 20:59:42 10° N 21:04:46 32° NE 21:05:17 31° ENE visible
16 Apr 3.5 22:43:39 10° NW 22:47:10 33° WNW 22:47:10 33° WNW visible
17 Apr 3.3 20:45:36 10° N 20:50:37 31° NE 20:51:34 29° ENE visible
17 Apr 3.3 22:29:30 10° NW 22:33:27 37° WNW 22:33:27 37° WNW visible
18 Apr 3.3 20:31:31 10° N 20:36:28 30° NE 20:37:53 27° ENE visible
18 Apr 3.1 22:15:22 10° NW 22:19:46 42° WNW 22:19:46 42° WNW visible
19 Apr 3.4 20:17:25 10° N 20:22:20 29° NE 20:24:13 24° E visible
19 Apr 2.9 22:01:13 10° NW 22:06:06 47° W 22:06:06 47° W visible
20 Apr 3.4 20:03:19 10° N 20:08:11 28° NE 20:10:35 21° E visible
20 Apr 2.7 21:47:05 10° NW 21:52:28 50° WSW 21:52:28 50° WSW visible
21 Apr 3.4 19:49:13 10° N 19:54:03 27° NE 19:56:59 18° E visible
21 Apr 2.6 21:32:56 10° NW 21:38:27 52° WSW 21:38:52 51° SW visible
22 Apr 3.5 19:35:07 10° N 19:39:54 27° NE 19:43:25 15° E visible
22 Apr 2.6 21:18:48 10° NNW 21:24:20 54° WSW 21:25:19 48° SW visible
23 Apr 3.5 19:21:02 10° N 19:25:45 26° NE 19:29:54 12° ESE visible
23 Apr 2.6 21:04:40 10° NNW 21:10:14 56° WSW 21:11:47 42° SSW visible
24 Apr 3.5 19:06:56 10° N 19:11:37 25° NE 19:16:14 10° ESE visible
24 Apr 2.6 20:50:32 10° NNW 20:56:07 58° WSW 20:58:18 35° S visible
25 Apr 2.5 20:36:24 10° NNW 20:42:00 60° WSW 20:44:51 29° S visible
